OBJECT M, 61905

Orbit data source: Space-Track

You're viewing an Uncataloged Satellite

Recently launched and/or uncataloged satellites may have evolving metadata. Metadata may include but not limited to: Owner, Maufacturer, Bus, Motor, and Mission.

OBJECT M, 61905 is a Chinese satellite in SSO that was launched on Mon, 11 Nov 2024 UTC via a LIJIAN-1 launch vehicle from the Jiuquan Satellite Launch Center, China (JSC). Unknown objects in Earth's orbit typically refer to objects detected orbiting the Earth but have not yet been identified or cataloged. These objects could be anything from previously untracked satellites, spent rocket stages, debris from satellite collisions, or even natural meteoroids temporarily captured by Earth's gravity.

Loading next visibility...
Identifier
61905, 2024-205M
Orbit
SSO
Last TLE update
5 hours ago
Origin
Flag of CNZHWK/ZXHK (CN / PRC)
Manufacturer
XIOPM/ZXHK
Mission
Operational Commercial Imaging
Bus & Motor
MN100?, Unknown motor
Mass
75 kg wet, 75 kg dry
Launch date (UTC)
2024-11-11 (8 months ago)
Launch vehicle
LIJIAN-1
Launch site
Jiuquan Satellite Launch Center, China (JSC)
Object type
Unknown
Shape & HBR
Box + 2 Pan, 1 m
Radar Cross Section
0.195 m², Medium (>0.1 m² and < 1m²)

Expand to show TLE details & history

TLE from 5 hours ago
0 OBJECT M
1 61905U 24205M   25182.17265796  .00003518  00000-0  18980-3 0  9991
2 61905  97.4510 256.2413 0012329 204.6929 155.3715 15.15341518 35101
Epoch: 2025-07-01T04:08Z
TLE epoch observation values (Epoch: 2025-07-01T04:08:37.647Z)
Latitude
-0.00002°
Longitude
-85.38748°
Altitude
530.759 km
Speed
7.593 km/s
True Right ascension
17h 04m 57s
True Declination
0° 00' 00"
Sunlit
Object was in full shadow at epoch
Visualization orbit readout
Latitude
38.31695°
Longitude
100.73149°
Altitude
521.433 km
Speed
7.608 km/s
Apparent Right ascension
07h 13m 28s
Apparent Declination
1° 09' 40"
Sunlit
Object is in daylight
Visualization observer readout
Local Sidereal Time
21:09:33
Azimuth
40.073° NE
Elevation
-41.113°
Doppler factor
1
Orbital elements
Apogee altitude
525.417 km
Perigee altitude
508.415 km
Semi-major axis
6,895.053 km
Eccentricity
0.00123
Inclination
97.451°
RAAN
256.2413°
Arg. of periapsis
204.6929°
True anomaly
Unknown
Mean anomaly
155.3715°
Eccentric anomaly
Unknown
Mean motion
3.79085 °/min
Orbital period
94.97 mins
BSTAR
0.0001898
Loading maneuver chart data...
Loading SW <> Apogee altitude chart data...
Loading historical data...
Loading historical data...
Loading historical data...
Loading historical data...
Loading historical data...
Loading historical data...
Loading historical data...

OBJECT M Visibility forecast

Observer location: undefined°, undefined°

Span
Click to sort rows by Start time (UTC) header in descending order
Start Az.
Max El. time (UTC)
Max El. Az.
Max El.
End time (UTC)
End Az.
6 mins2025-07-01 17:23:15.158Z29.519° NE2025-07-01 17:26:15.158Z88.258° E32.155°2025-07-01 17:29:15.158Z163.932° S
5 mins2025-07-02 05:38:15.158Z214.832° SW2025-07-02 05:40:15.158Z260° W25.567°2025-07-02 05:43:15.158Z320.874° NNW
|